Date String (YYYY-MM-DD hh:mm:ss) UTC,Instrument flags,Ambient pressure (hPa),Sample flow (lpm),Bypass flow (lpm),Sample temperature (°C),Ambient temperature (°C),ASC tube jacket temperature (°C),LED temperature (°C),Box temperature (°C),Sample RH (%),Span deviation,Mass concentration (μg/m³),Mass concentration (μg/m³),Mass concentration (μg/m³)
DateTimeUTC,F1_M11,P_M11,Q1_M11,Q2_M11,T1_M11,T2_M11,T3_M11,T4_M11,T5_M11,U1_M11,ZSPAN_M11,X2_M11,X0_M11,X1_M11
2022-12-31 10:00:00,,0812.4,5.03,0.00,21.8,20.1,00.0,30.8,23.4,11.1,0002.5,0017.46,0020.85,0016.95
2022-12-31 10:01:00,,0812.4,4.97,0.00,21.8,20.1,00.0,30.8,23.4,11.0,0001.9,0017.51,0020.86,0016.99
2022-12-31 10:02:00,,0812.4,5.05,0.00,21.8,20.1,00.0,30.8,23.3,11.0,0002.0,0017.60,0020.96,0017.04
2022-12-31 10:03:00,,0812.5,5.03,0.00,21.8,20.8,00.0,30.7,23.5,10.9,0000.8,0017.60,0020.96,0017.04
2022-12-31 10:04:00,,0812.5,4.97,0.00,21.9,22.0,00.0,30.7,23.9,10.9,0000.7,0017.56,0021.00,0017.02
2022-12-31 10:05:00,,0812.4,4.96,0.00,22.1,22.9,00.0,30.7,24.1,10.7,0000.6,0017.51,0020.94,0016.98
2022-12-31 10:06:00,,0812.4,5.02,0.00,22.2,22.6,00.0,30.8,24.1,10.7,0001.1,0017.59,0021.03,0017.04
2022-12-31 10:07:00,,0812.5,5.03,0.00,22.2,22.1,00.0,30.9,24.1,10.7,0000.8,0017.88,0021.31,0017.31
2022-12-31 10:08:00,,0812.5,4.99,0.00,22.2,21.7,00.0,30.9,24.0,10.6,0000.5,0018.33,0021.71,0017.74
2022-12-31 10:09:00,,0812.5,4.99,0.00,22.2,21.5,00.0,30.9,23.9,10.5,0000.8,0018.88,0022.17,0018.33
2022-12-31 10:10:00,,0812.5,4.98,0.00,22.2,21.2,00.0,30.9,23.9,10.6,0001.0,0019.29,0022.44,0018.80
2022-12-31 10:11:00,,0812.5,4.97,0.00,22.2,21.1,00.0,30.9,23.9,10.6,0000.9,0019.58,0022.84,0019.09
2022-12-31 10:12:00,,0812.5,5.00,0.00,22.2,21.0,00.0,30.9,23.9,10.7,0001.5,0019.65,0022.94,0019.17
2022-12-31 10:13:00,,0812.4,5.04,0.00,22.2,20.9,00.0,30.9,23.9,10.8,0001.3,0019.43,0022.71,0018.99
2022-12-31 10:14:00,,0812.5,5.01,0.00,22.2,20.9,00.0,31.0,23.9,10.8,0001.3,0019.24,0022.50,0018.81
2022-12-31 10:15:00,,0812.5,5.00,0.00,22.2,20.8,00.0,31.0,23.9,10.9,0002.0,0018.94,0022.06,0018.53
2022-12-31 10:16:00,,0812.5,4.96,0.00,22.1,20.8,00.0,31.0,23.9,10.9,0002.7,0018.56,0021.65,0018.15
2022-12-31 10:17:00,,0812.7,4.97,0.00,22.1,20.8,00.0,31.0,23.9,10.9,0002.6,0018.24,0021.31,0017.84
2022-12-31 10:18:00,,0812.7,4.98,0.00,22.1,20.8,00.0,31.0,23.9,10.8,0002.7,0018.12,0021.14,0017.74
2022-12-31 10:19:00,,0812.7,5.05,0.00,22.1,20.7,00.0,31.0,23.8,10.9,0002.4,0017.75,0020.98,0017.37
2022-12-31 10:20:00,,0812.7,4.99,0.00,22.1,20.7,00.0,31.0,23.8,10.8,0002.0,0017.39,0021.36,0016.99
2022-12-31 10:21:00,,0812.6,4.96,0.00,22.1,20.7,00.0,31.0,23.8,10.7,0001.8,0017.25,0021.22,0016.84
2022-12-31 10:22:00,,0812.6,5.02,0.00,22.1,20.7,00.0,31.0,23.8,10.9,0001.8,0017.01,0020.90,0016.62
2022-12-31 10:23:00,,0812.6,5.01,0.00,22.1,20.7,00.0,31.0,23.8,10.8,0001.7,0016.89,0020.77,0016.51
2022-12-31 10:24:00,,0812.6,4.98,0.00,22.1,20.7,00.0,30.9,23.8,10.7,0001.9,0017.13,0020.98,0016.73
2022-12-31 10:25:00,,0812.6,4.97,0.00,22.1,20.7,00.0,30.9,23.8,10.6,0002.3,0017.39,0021.24,0016.98
2022-12-31 10:26:00,,0812.6,4.99,0.00,22.1,20.6,00.0,30.9,23.8,10.6,0002.5,0017.77,0021.70,0017.36
2022-12-31 10:27:00,,0812.7,4.97,0.00,22.1,21.1,00.0,30.9,23.9,10.7,0002.6,0018.09,0022.09,0017.67
2022-12-31 10:28:00,,0812.7,5.03,0.00,22.2,22.1,00.0,30.9,24.1,10.6,0002.7,0018.40,0022.40,0017.99
2022-12-31 10:29:00,,0812.7,5.02,0.00,22.3,22.9,00.0,30.9,24.4,10.5,0002.9,0018.70,0022.71,0018.29
2022-12-31 10:30:00,,0812.6,4.98,0.00,22.4,22.6,00.0,31.0,24.4,10.4,0002.8,0019.20,0023.20,0018.78
2022-12-31 10:31:00,,0812.7,4.97,0.00,22.4,22.2,00.0,31.0,24.3,10.5,0002.5,0019.50,0022.74,0019.09
2022-12-31 10:32:00,,0812.7,4.97,0.00,22.4,21.8,00.0,31.1,24.1,10.5,0002.3,0019.60,0023.39,0019.18
2022-12-31 10:33:00,,0812.7,5.05,0.00,22.4,21.4,00.0,31.1,24.1,10.6,0002.6,0019.68,0023.97,0019.24
2022-12-31 10:34:00,,0812.7,5.01,0.00,22.3,21.2,00.0,31.1,24.1,10.7,0002.8,0019.65,0024.01,0019.20
2022-12-31 10:35:00,,0812.6,4.98,0.00,22.3,21.1,00.0,31.1,24.0,10.7,0002.7,0019.55,0023.94,0019.07
2022-12-31 10:36:00,,0812.6,4.98,0.00,22.3,21.1,00.0,31.1,24.1,10.7,0002.4,0019.53,0023.90,0019.06
2022-12-31 10:37:00,,0812.6,5.03,0.00,22.3,21.0,00.0,31.1,24.1,10.6,0002.0,0019.48,0024.02,0018.99
2022-12-31 10:38:00,,0812.7,5.00,0.00,22.3,20.9,00.0,31.1,24.0,10.6,0001.5,0019.54,0024.07,0019.04
2022-12-31 10:39:00,,0812.6,4.99,0.00,22.3,20.9,00.0,31.1,24.0,10.7,0001.0,0019.43,0023.98,0018.94
2022-12-31 10:40:00,,0812.5,4.99,0.00,22.3,20.9,00.0,31.1,23.9,10.8,0000.5,0019.03,0023.59,0018.56
2022-12-31 10:41:00,,0812.5,4.97,0.00,22.2,20.8,00.0,31.1,23.9,10.9,0000.5,0018.44,0022.95,0017.98
2022-12-31 10:42:00,,0812.5,4.97,0.00,22.2,20.8,00.0,31.1,23.9,11.0,0000.5,0017.87,0022.32,0017.40
2022-12-31 10:43:00,,0812.5,5.01,0.00,22.2,20.8,00.0,31.1,23.8,11.1,0000.1,0017.33,0021.26,0016.85
2022-12-31 10:44:00,,0812.5,5.02,0.00,22.2,20.7,00.0,31.1,23.8,11.2,0000.0,0016.89,0020.42,0016.39
2022-12-31 10:45:00,,0812.5,5.04,0.00,22.1,20.7,00.0,31.1,23.8,11.2,0000.0,0016.70,0020.06,0016.21
2022-12-31 10:46:00,,0812.5,4.95,0.00,22.1,20.6,00.0,31.1,23.7,11.2,0000.0,0016.51,0020.06,0016.04
2022-12-31 10:47:00,,0812.6,4.96,0.00,22.1,20.6,00.0,31.0,23.7,11.2,0000.0,0016.13,0019.74,0015.66
2022-12-31 10:48:00,,0812.5,5.03,0.00,22.1,21.3,00.0,31.0,23.9,11.1,0000.0,0015.69,0019.15,0015.24
2022-12-31 10:49:00,,0812.5,5.01,0.00,22.2,22.3,00.0,31.0,24.2,11.2,0000.0,0015.14,0018.58,0014.66
2022-12-31 10:50:00,,0812.5,5.03,0.00,22.4,22.9,00.0,31.0,24.4,11.1,0000.0,0014.71,0018.11,0014.23
2022-12-31 10:51:00,,0812.5,4.98,0.00,22.4,22.5,00.0,31.1,24.4,11.1,0000.0,0014.52,0017.88,0014.07
2022-12-31 10:52:00,,0812.5,4.97,0.00,22.4,22.0,00.0,31.1,24.3,11.2,0000.0,0014.50,0018.98,0014.05
2022-12-31 10:53:00,,0812.5,4.98,0.00,22.4,21.7,00.0,31.1,24.2,11.1,0000.0,0014.46,0018.96,0014.03
2022-12-31 10:54:00,,0812.5,5.02,0.00,22.4,21.5,00.0,31.2,24.2,11.1,0000.0,0014.55,0019.03,0014.13
2022-12-31 10:55:00,,0812.6,5.02,0.00,22.4,21.4,00.0,31.2,24.2,11.1,0000.0,0014.61,0019.11,0014.21
2022-12-31 10:56:00,,0812.6,5.00,0.00,22.4,21.3,00.0,31.2,24.2,11.1,0000.0,0014.64,0019.23,0014.20
2022-12-31 10:57:00,,0812.5,4.99,0.00,22.4,21.1,00.0,31.2,24.1,11.1,0000.0,0014.58,0018.99,0014.13
2022-12-31 10:58:00,,0812.5,4.96,0.00,22.4,21.0,00.0,31.2,24.1,11.0,0000.0,0014.60,0018.95,0014.17
2022-12-31 10:59:00,,0812.4,5.03,0.00,22.3,21.0,00.0,31.2,24.0,11.0,0000.0,0014.64,0018.96,0014.24
